Weather History for Molokai, HI

Change the Weather History Date:

Wednesday, January 9, 2013

  Actual Average Record
Temperature  
Mean Temperature 74 °F -  
Max Temperature 78 °F 78 °F 84 °F (2007)
Min Temperature 70 °F 64 °F 54 °F (2011)
Cooling Degree Days 9    
Growing Degree Days 24 (Base 50)    
Moisture  
Dew Point 64 °F    
Average Humidity 72    
Maximum Humidity 81    
Minimum Humidity 62    
Precipitation  
Precipitation 0.00 in - - ()
Sea Level Pressure  
Sea Level Pressure 29.97 in    
Wind  
Wind Speed 13 mph (NE)    
Max Wind Speed 20 mph    
Max Gust Speed 34 mph    
Visibility 10 miles    
Events      
Averages and records for this station are not official NWS values.
T = Trace of Precipitation, MM = Missing Value Source: NWS Daily Summary

Daily Weather History Graph

Daily Weather History Graph

Search for Another Location

Airport:

Trip Planner

Search our weather history database for the weather conditions in past years. The results will help you decide how hot, cold, wet, or windy it might be!

Date:

Astronomy

Jan. 09, 2013 Rise Set
Actual Time 7:07 AM HST 6:03 PM HST
Civil Twilight 6:43 AM HST 6:27 PM HST
Nautical Twilight 6:16 AM HST 6:55 PM HST
Astronomical Twilight 5:49 AM HST 7:22 PM HST
Moon 4:58 AM HST (1/9) 4:17 PM HST (1/9)
Length of Visible Light 11h 44m
Length of Day
10h 56m
Waning Crescent, 5% of the Moon is Illuminated
Jan 9
Waning Crescent
Jan 11
New
Jan 18
First Quarter
Jan 26
Full
Feb 3
Last Quarter

Hourly Weather History & Observations

Time (HST) Temp. Dew Point Humidity Pressure Visibility Wind Dir Wind Speed Gust Speed Precip Events Conditions
12:54 AM 71.1 °F 64.0 °F 78% 29.99 in 10.0 mi NNE 16.1 mph 25.3 mph N/A   Clear
1:54 AM 70.0 °F 64.0 °F 81% 29.96 in 10.0 mi NNE 9.2 mph 18.4 mph N/A   Clear
2:54 AM 71.1 °F 63.0 °F 75% 29.95 in 10.0 mi NNE 11.5 mph 23.0 mph N/A   Clear
3:54 AM 71.1 °F 62.1 °F 73% 29.95 in 10.0 mi NNE 9.2 mph - N/A   Clear
4:54 AM 71.1 °F 63.0 °F 75% 29.95 in 10.0 mi NE 6.9 mph - N/A   Clear
5:54 AM 70.0 °F 63.0 °F 78% 29.98 in 10.0 mi ENE 8.1 mph - N/A   Partly Cloudy
6:54 AM 71.1 °F 64.0 °F 78% 29.98 in 10.0 mi NE 13.8 mph 23.0 mph N/A   Scattered Clouds
7:54 AM 72.0 °F 64.0 °F 76% 29.99 in 10.0 mi NE 12.7 mph 19.6 mph N/A   Partly Cloudy
8:54 AM 75.0 °F 64.0 °F 69% 30.01 in 10.0 mi NE 8.1 mph 18.4 mph N/A   Clear
9:54 AM 75.9 °F 64.0 °F 67% 30.01 in 10.0 mi NE 12.7 mph 21.9 mph N/A   Clear
10:54 AM 77.0 °F 64.0 °F 64% 30.00 in 10.0 mi NE 12.7 mph 24.2 mph N/A   Partly Cloudy
11:54 AM 75.9 °F 64.0 °F 67% 29.96 in 10.0 mi NE 16.1 mph 26.5 mph N/A   Clear
12:54 PM 78.1 °F 64.0 °F 62% 29.93 in 10.0 mi NNE 16.1 mph 27.6 mph N/A   Scattered Clouds
1:54 PM 78.1 °F 64.0 °F 62% 29.91 in 10.0 mi NE 19.6 mph 34.5 mph N/A   Scattered Clouds
2:54 PM 78.1 °F 64.0 °F 62% 29.91 in 10.0 mi NE 13.8 mph 24.2 mph N/A   Scattered Clouds
3:54 PM 75.9 °F 64.0 °F 67% 29.93 in 10.0 mi NNE 16.1 mph 26.5 mph N/A   Clear
4:54 PM 75.0 °F 64.9 °F 71% 29.93 in 10.0 mi NNE 17.3 mph 26.5 mph N/A   Clear
5:54 PM 73.0 °F 64.0 °F 73% 29.95 in 10.0 mi NE 16.1 mph 23.0 mph N/A   Clear
6:06 PM 73.4 °F 64.4 °F 73% 29.94 in 10.0 mi NE 15.0 mph 26.5 mph N/A   Scattered Clouds
6:54 PM 72.0 °F 64.0 °F 76% 29.97 in 10.0 mi NNE 13.8 mph 21.9 mph N/A   Clear
7:54 PM 72.0 °F 63.0 °F 73% 29.99 in 10.0 mi NE 10.4 mph - N/A   Clear
8:54 PM 72.0 °F 64.0 °F 76% 29.99 in 10.0 mi NE 12.7 mph 19.6 mph N/A   Clear
9:54 PM 72.0 °F 62.1 °F 71% 29.99 in 10.0 mi NE 10.4 mph 19.6 mph N/A   Clear
10:54 PM 70.0 °F 60.1 °F 71% 29.99 in 10.0 mi East 10.4 mph - N/A   Clear
11:54 PM 71.1 °F 62.1 °F 73% 29.99 in 10.0 mi NE 4.6 mph - N/A   Clear